This demonstration page uses our WeatherBlox Daily Observations layout. Learn more.

Left ArrowRight Arrow

41.12389, -100.76542

Hourly Observations for December 2, 2016

Temp ( °F °C ) Dew Point ( °F °C ) Humidity (%) Winds ( mph kmh ) Pressure ( in mb ) Visibility ( mi km ) Precip ( " mm )
12:53 am 00:53 Mostly Clear 17 -8.3 13 -10.6 84 84 Calm 30.16 1021 10 16 0.00 0.00
1:53 am 01:53 Clear 15 -9.4 11 -11.7 84 84 NW 6 9 30.17 1022 10 16 0.00 0.00
2:53 am 02:53 Clear 15 -9.4 11 -11.7 84 84 NW 5 7 30.18 1022 10 16 0.00 0.00
3:53 am 03:53 Clear 16 -8.9 12 -11.1 84 84 NW 3 6 30.20 1023 10 16 0.00 0.00
4:53 am 04:53 Clear 14 -10 10 -12.2 84 84 NW 7 11 30.22 1023 10 16 0.00 0.00
5:53 am 05:53 Clear 14 -10 11 -11.7 88 88 NNW 3 6 30.26 1025 10 16 0.00 0.00
6:53 am 06:53 Clear 14 -10 10 -12.2 84 84 N 3 6 30.28 1026 10 16 0.00 0.00
7:53 am 07:53 Sunny 13 -10.6 9 -12.8 84 84 NNW 5 7 30.31 1026 10 16 0.00 0.00
8:53 am 08:53 Sunny 20 -6.7 15 -9.4 81 81 NW 8 13 30.33 1027 10 16 0.00 0.00
9:53 am 09:53 Sunny 27 -2.8 20 -6.7 75 75 NW 5 7 30.32 1027 10 16 0.00 0.00
10:53 am 10:53 Sunny 32 0 24 -4.4 73 73 SW 3 6 30.35 1028 10 16 0.00 0.00
11:53 am 11:53 Sunny 37 2.8 24 -4.4 59 59 SSW 3 6 30.34 1027 10 16 0.00 0.00
12:53 pm 12:53 Sunny 40 4.4 23 -5 51 51 Calm 30.32 1027 10 16 0.00 0.00
1:53 pm 13:53 Sunny 42 5.6 22 -5.6 45 45 Calm 30.31 1027 10 16 0.00 0.00
2:53 pm 14:53 Sunny 43 6.1 19 -7.2 38 38 SW 5 7 30.32 1027 10 16 0.00 0.00
3:53 pm 15:53 Sunny 41 5 20 -6.7 43 43 Calm 30.32 1027 10 16 0.00 0.00
4:53 pm 16:53 Sunny 40 4.4 20 -6.7 45 45 Calm 30.32 1027 10 16 0.00 0.00
5:53 pm 17:53 Clear 27 -2.8 19 -7.2 72 72 E 7 11 30.36 1028 10 16 0.00 0.00
6:53 pm 18:53 Clear 25 -3.9 18 -7.8 75 75 E 3 6 30.36 1028 10 16 0.00 0.00
7:53 pm 19:53 Clear 25 -3.9 21 -6.1 85 85 SSW 3 6 30.37 1029 10 16 0.00 0.00
8:53 pm 20:53 Mostly Cloudy 23 -5 19 -7.2 85 85 Calm 30.37 1028 10 16 0.00 0.00
10:53 pm 22:53 Mostly Cloudy 21 -6.1 17 -8.3 85 85 Calm 30.35 1028 10 16 0.00 0.00

Powered by AerisWeather